| time (UTC) | temp F | wind direction | speed knots | gust knots | rain 1hr in | rain 24hr in | rain mn in | humidity % | barometer mb |
| 20260507101352 | 52 | 31 | 0.0 | 0.0 | 0.00 | 0.29 | 0.09 | 91 | 1012.8 |
| 20260507100834 | 52 | 31 | 0.0 | 0.0 | 0.00 | 0.29 | 0.09 | 91 | 1012.6 |
| 20260507100340 | 52 | 31 | 0.0 | 0.0 | 0.00 | 0.29 | 0.09 | 91 | 1012.5 |
| 20260507095834 | 52 | 31 | 0.0 | 0.0 | 0.00 | 0.29 | 0.09 | 91 | 1012.5 |
| 20260507095400 | 52 | 31 | 0.0 | 0.0 | 0.00 | 0.29 | 0.09 | 91 | 1012.6 |
| 20260507094826 | 52 | 31 | 0.0 | 0.0 | 0.00 | 0.29 | 0.09 | 91 | 1012.5 |
| 20260507094332 | 52 | 31 | 0.0 | 0.0 | 0.00 | 0.29 | 0.09 | 91 | 1012.4 |
| 20260507093838 | 52 | 31 | 0.0 | 0.0 | 0.00 | 0.29 | 0.09 | 91 | 1012.5 |
| 20260507093324 | 52 | 31 | 0.0 | 0.0 | 0.00 | 0.29 | 0.09 | 91 | 1012.5 |
| 20260507092831 | 52 | 31 | 0.0 | 0.0 | 0.00 | 0.29 | 0.09 | 91 | 1012.8 |
| 20260507092357 | 52 | 31 | 0.0 | 0.0 | 0.00 | 0.29 | 0.09 | 91 | 1012.7 |
| 20260507091825 | 52 | 31 | 0.0 | 0.0 | 0.00 | 0.29 | 0.09 | 91 | 1012.7 |
| 20260507091350 | 52 | 31 | 0.0 | 0.0 | 0.00 | 0.29 | 0.09 | 91 | 1012.7 |
| 20260507090835 | 52 | 31 | 0.0 | 0.0 | 0.00 | 0.29 | 0.09 | 91 | 1012.6 |
| 20260507090321 | 52 | 31 | 0.0 | 0.0 | 0.00 | 0.29 | 0.09 | 91 | 1012.5 |
| 20260507085837 | 52 | 31 | 0.0 | 0.0 | 0.00 | 0.29 | 0.09 | 91 | 1012.4 |
| 20260507085343 | 52 | 31 | 0.0 | 0.0 | 0.00 | 0.29 | 0.09 | 91 | 1012.5 |
| 20260507084828 | 52 | 31 | 0.0 | 0.0 | 0.00 | 0.29 | 0.09 | 91 | 1012.4 |
| 20260507084334 | 52 | 31 | 0.0 | 0.0 | 0.00 | 0.29 | 0.09 | 91 | 1012.4 |
| 20260507083859 | 52 | 31 | 0.0 | 0.0 | 0.00 | 0.29 | 0.09 | 90 | 1012.4 |
| 20260507083324 | 52 | 31 | 0.0 | 0.9 | 0.00 | 0.29 | 0.09 | 90 | 1012.3 |
| 20260507082829 | 52 | 31 | 0.0 | 0.9 | 0.00 | 0.29 | 0.09 | 90 | 1012.1 |
| 20260507082335 | 52 | 31 | 0.0 | 0.9 | 0.00 | 0.29 | 0.09 | 90 | 1011.9 |
| 20260507081900 | 52 | 31 | 0.0 | 0.0 | 0.00 | 0.29 | 0.09 | 90 | 1011.8 |
| 20260507081325 | 52 | 31 | 0.0 | 0.0 | 0.01 | 0.29 | 0.09 | 90 | 1011.7 |
| 20260507080836 | 52 | 31 | 0.0 | 0.9 | 0.01 | 0.29 | 0.09 | 90 | 1011.6 |
| 20260507080322 | 52 | 31 | 0.0 | 0.9 | 0.01 | 0.29 | 0.09 | 90 | 1011.8 |
| 20260507075838 | 52 | 31 | 0.0 | 0.9 | 0.01 | 0.29 | 0.09 | 90 | 1011.8 |
| 20260507075344 | 52 | 31 | 0.0 | 1.7 | 0.01 | 0.29 | 0.09 | 90 | 1011.8 |
| 20260507074827 | 53 | 31 | 0.0 | 1.7 | 0.01 | 0.29 | 0.09 | 90 | 1011.7 |
| 20260507074334 | 53 | 31 | 0.0 | 2.6 | 0.01 | 0.29 | 0.09 | 90 | 1011.8 |
| 20260507073839 | 53 | 31 | 0.0 | 2.6 | 0.01 | 0.29 | 0.09 | 90 | 1011.6 |
| 20260507073326 | 53 | 31 | 0.0 | 1.7 | 0.03 | 0.29 | 0.09 | 90 | 1011.6 |
| 20260507072831 | 53 | 31 | 0.0 | 2.6 | 0.03 | 0.29 | 0.09 | 90 | 1011.7 |
| 20260507072336 | 53 | 32 | 0.0 | 3.5 | 0.05 | 0.29 | 0.09 | 90 | 1011.6 |
| 20260507071821 | 53 | 38 | 0.9 | 3.5 | 0.05 | 0.29 | 0.09 | 90 | 1011.8 |
| 20260507071330 | 53 | 20 | 0.0 | 0.9 | 0.04 | 0.28 | 0.08 | 90 | 1012.0 |
| 20260507070835 | 53 | 20 | 0.0 | 0.0 | 0.04 | 0.28 | 0.08 | 90 | 1012.0 |
| 20260507070341 | 53 | 20 | 0.0 | 0.0 | 0.04 | 0.28 | 0.08 | 90 | 1012.2 |
| 20260507065836 | 53 | 20 | 0.0 | 1.7 | 0.04 | 0.28 | 0.08 | 90 | 1012.1 |
| 20260507065323 | 53 | 20 | 0.0 | 1.7 | 0.04 | 0.28 | 0.08 | 89 | 1012.1 |
| 20260507064827 | 54 | 24 | 0.0 | 0.0 | 0.04 | 0.28 | 0.08 | 89 | 1011.9 |
| 20260507064333 | 54 | 24 | 0.0 | 3.5 | 0.04 | 0.28 | 0.08 | 89 | 1011.9 |
| 20260507063859 | 54 | 24 | 0.0 | 3.5 | 0.04 | 0.28 | 0.08 | 89 | 1011.9 |
| 20260507063322 | 54 | 27 | 0.0 | 2.6 | 0.02 | 0.26 | 0.06 | 89 | 1012.0 |
| 20260507062827 | 54 | 26 | 0.0 | 2.6 | 0.01 | 0.25 | 0.05 | 89 | 1011.8 |
| 20260507062332 | 55 | 342 | 0.0 | 1.7 | 0.00 | 0.24 | 0.04 | 89 | 1012.0 |
| 20260507061837 | 55 | 341 | 0.0 | 2.6 | 0.00 | 0.24 | 0.04 | 89 | 1012.0 |
| 20260507061327 | 55 | 342 | 0.0 | 0.9 | 0.00 | 0.24 | 0.04 | 89 | 1012.0 |
| 20260507060851 | 55 | 338 | 0.0 | 0.9 | 0.00 | 0.24 | 0.04 | 90 | 1012.0 |
| 20260507060336 | 55 | 337 | 0.0 | 0.9 | 0.00 | 0.24 | 0.04 | 90 | 1012.3 |
| 20260507055832 | 55 | 337 | 0.0 | 0.0 | 0.00 | 0.24 | 0.04 | 90 | 1011.8 |
| 20260507055339 | 55 | 337 | 0.0 | 1.7 | 0.01 | 0.24 | 0.04 | 90 | 1012.0 |
| 20260507054825 | 55 | 337 | 0.0 | 1.7 | 0.01 | 0.24 | 0.04 | 90 | 1011.9 |
| 20260507054331 | 55 | 337 | 0.0 | 1.7 | 0.01 | 0.24 | 0.04 | 90 | 1011.9 |
| 20260507053857 | 55 | 337 | 0.0 | 1.7 | 0.01 | 0.24 | 0.04 | 90 | 1012.0 |
| 20260507053342 | 55 | 338 | 0.0 | 1.7 | 0.01 | 0.24 | 0.04 | 90 | 1011.8 |
| 20260507052825 | 55 | 337 | 0.0 | 0.9 | 0.01 | 0.24 | 0.04 | 89 | 1011.8 |
| 20260507052331 | 55 | 337 | 0.0 | 0.9 | 0.02 | 0.24 | 0.04 | 89 | 1011.8 |
| 20260507051839 | 55 | 337 | 0.0 | 0.9 | 0.03 | 0.24 | 0.04 | 89 | 1011.8 |
| 20260507051346 | 55 | 337 | 0.0 | 0.9 | 0.04 | 0.24 | 0.04 | 89 | 1011.9 |
| 20260507050831 | 56 | 337 | 0.0 | 2.6 | 0.04 | 0.24 | 0.04 | 89 | 1012.0 |
| 20260507050340 | 56 | 337 | 0.0 | 2.6 | 0.04 | 0.24 | 0.04 | 89 | 1012.0 |
| 20260507045855 | 56 | 337 | 0.0 | 0.9 | 0.05 | 0.24 | 0.04 | 89 | 1011.8 |
| 20260507045321 | 56 | 340 | 0.0 | 2.6 | 0.04 | 0.23 | 0.03 | 89 | 1012.3 |
| 20260507044848 | 56 | 340 | 0.0 | 3.5 | 0.04 | 0.23 | 0.03 | 89 | 1012.6 |
| 20260507044333 | 56 | 342 | 1.7 | 3.5 | 0.04 | 0.23 | 0.03 | 89 | 1012.4 |
| 20260507043839 | 57 | 43 | 0.9 | 2.6 | 0.04 | 0.23 | 0.03 | 89 | 1012.2 |
| 20260507043324 | 57 | 319 | 0.0 | 0.0 | 0.04 | 0.23 | 0.03 | 89 | 1012.1 |
| 20260507042850 | 57 | 319 | 0.0 | 2.6 | 0.04 | 0.23 | 0.03 | 89 | 1011.8 |
| 20260507042333 | 57 | 319 | 0.0 | 2.6 | 0.03 | 0.22 | 0.02 | 89 | 1011.6 |
| 20260507041839 | 57 | 319 | 0.0 | 1.7 | 0.03 | 0.21 | 0.01 | 88 | 1011.5 |
| 20260507041346 | 57 | 319 | 0.0 | 3.5 | 0.02 | 0.20 | 0.00 | 88 | 1011.6 |
| 20260507040850 | 58 | 320 | 0.0 | 2.6 | 0.02 | 0.20 | 0.00 | 88 | 1011.9 |
| 20260507040335 | 58 | 350 | 0.0 | 2.6 | 0.02 | 0.20 | 0.00 | 88 | 1011.8 |
| 20260507035831 | 58 | 355 | 0.0 | 0.0 | 0.01 | 0.19 | 0.19 | 88 | 1011.9 |
| 20260507035321 | 58 | 355 | 0.0 | 3.5 | 0.01 | 0.19 | 0.19 | 87 | 1011.5 |
| 20260507034827 | 58 | 355 | 0.0 | 3.5 | 0.01 | 0.19 | 0.19 | 87 | 1011.8 |
| 20260507034333 | 59 | 9 | 0.0 | 0.9 | 0.01 | 0.19 | 0.19 | 88 | 1011.3 |
| 20260507033859 | 59 | 9 | 0.0 | 2.6 | 0.01 | 0.19 | 0.19 | 87 | 1011.3 |
| 20260507033323 | 59 | 9 | 0.9 | 3.5 | 0.01 | 0.19 | 0.19 | 87 | 1011.3 |
| 20260507032828 | 59 | 10 | 0.9 | 3.5 | 0.01 | 0.19 | 0.19 | 87 | 1011.1 |
| 20260507032332 | 60 | 9 | 0.0 | 2.6 | 0.01 | 0.19 | 0.19 | 86 | 1011.0 |
| 20260507031837 | 60 | 355 | 0.0 | 2.6 | 0.00 | 0.18 | 0.18 | 87 | 1010.8 |
| 20260507031322 | 60 | 342 | 0.9 | 2.6 | 0.00 | 0.18 | 0.18 | 87 | 1011.4 |
| 20260507030827 | 60 | 12 | 0.0 | 1.7 | 0.00 | 0.18 | 0.18 | 87 | 1010.9 |
| 20260507030334 | 60 | 338 | 0.0 | 0.9 | 0.00 | 0.18 | 0.18 | 87 | 1011.2 |
| 20260507025830 | 60 | 338 | 0.0 | 1.7 | 0.00 | 0.18 | 0.18 | 87 | 1010.8 |
| 20260507025320 | 60 | 338 | 0.0 | 1.7 | 0.00 | 0.18 | 0.18 | 86 | 1010.7 |
| 20260507024827 | 60 | 331 | 0.0 | 0.9 | 0.00 | 0.18 | 0.18 | 86 | 1010.8 |
| 20260507024334 | 60 | 331 | 0.0 | 3.5 | 0.00 | 0.18 | 0.18 | 86 | 1010.8 |
| 20260507023839 | 61 | 331 | 0.9 | 3.5 | 0.00 | 0.18 | 0.18 | 86 | 1010.9 |
| 20260507023325 | 61 | 310 | 0.0 | 3.5 | 0.00 | 0.18 | 0.18 | 86 | 1011.0 |
| 20260507022832 | 61 | 349 | 0.0 | 0.9 | 0.00 | 0.18 | 0.18 | 86 | 1010.9 |
| 20260507022337 | 61 | 349 | 0.0 | 0.9 | 0.00 | 0.18 | 0.18 | 85 | 1010.9 |
| 20260507021823 | 61 | 349 | 0.0 | 0.0 | 0.00 | 0.18 | 0.18 | 86 | 1010.7 |
| 20260507021328 | 61 | 349 | 0.0 | 1.7 | 0.00 | 0.18 | 0.18 | 86 | 1010.8 |
| 20260507020833 | 61 | 349 | 0.0 | 3.5 | 0.00 | 0.18 | 0.18 | 85 | 1010.7 |
| 20260507020323 | 61 | 350 | 0.9 | 3.5 | 0.00 | 0.18 | 0.18 | 86 | 1010.9 |
| 20260507015821 | 61 | 355 | 0.0 | 0.9 | 0.00 | 0.18 | 0.18 | 86 | 1010.9 |
| 20260507015326 | 61 | 355 | 0.0 | 2.6 | 0.00 | 0.18 | 0.18 | 85 | 1010.7 |
| 20260507014853 | 62 | 355 | 0.0 | 2.6 | 0.01 | 0.18 | 0.18 | 85 | 1010.5 |
| 20260507014338 | 62 | 355 | 0.9 | 3.5 | 0.01 | 0.18 | 0.18 | 86 | 1010.5 |
| 20260507013822 | 62 | 360 | 0.9 | 3.5 | 0.01 | 0.18 | 0.18 | 86 | 1010.4 |
| 20260507013328 | 62 | 305 | 0.9 | 3.5 | 0.01 | 0.18 | 0.18 | 86 | 1010.7 |
| 20260507012833 | 63 | 330 | 0.0 | 3.5 | 0.02 | 0.18 | 0.18 | 86 | 1011.0 |
| 20260507012359 | 63 | 315 | 0.0 | 5.2 | 0.02 | 0.18 | 0.18 | 86 | 1010.8 |
| 20260507011822 | 63 | 315 | 0.9 | 7.8 | 0.02 | 0.18 | 0.18 | 86 | 1010.7 |
| 20260507011329 | 64 | 20 | 1.7 | 7.8 | 0.02 | 0.18 | 0.18 | 86 | 1010.8 |
| 20260507010836 | 64 | 336 | 0.9 | 7.0 | 0.02 | 0.18 | 0.18 | 87 | 1010.7 |
| 20260507010323 | 65 | 336 | 2.6 | 7.0 | 0.02 | 0.18 | 0.18 | 88 | 1010.8 |
| 20260507005839 | 65 | 302 | 0.0 | 1.7 | 0.02 | 0.18 | 0.18 | 88 | 1010.6 |
| 20260507005346 | 65 | 301 | 0.0 | 3.5 | 0.01 | 0.17 | 0.17 | 87 | 1010.4 |
| 20260507004832 | 65 | 300 | 0.9 | 4.3 | 0.01 | 0.17 | 0.17 | 87 | 1010.5 |
| 20260507004358 | 66 | 302 | 1.7 | 4.3 | 0.01 | 0.17 | 0.17 | 87 | 1010.7 |
| 20260507003901 | 66 | 304 | 0.0 | 3.5 | 0.01 | 0.17 | 0.17 | 86 | 1010.5 |
| 20260507003325 | 66 | 305 | 0.9 | 7.0 | 0.01 | 0.17 | 0.17 | 85 | 1010.4 |
| 20260507002830 | 66 | 306 | 0.0 | 7.0 | 0.00 | 0.16 | 0.16 | 85 | 1010.3 |
| 20260507002335 | 67 | 306 | 2.6 | 7.0 | 0.00 | 0.16 | 0.16 | 84 | 1010.4 |
| 20260507001843 | 67 | 288 | 0.9 | 3.5 | 0.00 | 0.16 | 0.16 | 85 | 1010.2 |
| 20260507001327 | 67 | 243 | 0.9 | 1.7 | 0.00 | 0.16 | 0.16 | 85 | 1010.0 |
| 20260507000853 | 67 | 242 | 0.0 | 1.7 | 0.00 | 0.16 | 0.16 | 84 | 1009.9 |
| 20260507000338 | 67 | 242 | 0.0 | 1.7 | 0.00 | 0.16 | 0.16 | 84 | 1009.9 |
| 20260506235855 | 67 | 242 | 0.0 | 0.0 | 0.00 | 0.16 | 0.16 | 84 | 1009.7 |
| 20260506235320 | 68 | 242 | 0.0 | 0.0 | 0.00 | 0.16 | 0.16 | 84 | 1009.8 |
| 20260506234830 | 68 | 242 | 0.0 | 0.0 | 0.00 | 0.16 | 0.16 | 83 | 1009.6 |
| 20260506234336 | 68 | 242 | 0.0 | 0.0 | 0.00 | 0.16 | 0.16 | 82 | 1009.3 |
| 20260506233821 | 68 | 242 | 0.0 | 1.7 | 0.00 | 0.16 | 0.16 | 82 | 1009.3 |
| 20260506233325 | 68 | 242 | 0.0 | 1.7 | 0.00 | 0.16 | 0.16 | 82 | 1009.4 |
| 20260506232831 | 68 | 242 | 0.0 | 1.7 | 0.00 | 0.16 | 0.16 | 82 | 1009.4 |
| 20260506232336 | 68 | 242 | 0.0 | 1.7 | 0.00 | 0.16 | 0.16 | 81 | 1009.4 |
| 20260506231823 | 68 | 242 | 0.0 | 1.7 | 0.00 | 0.16 | 0.16 | 81 | 1009.4 |
| 20260506231328 | 68 | 242 | 0.0 | 1.7 | 0.00 | 0.16 | 0.16 | 81 | 1009.3 |
| 20260506230835 | 69 | 242 | 0.0 | 1.7 | 0.00 | 0.16 | 0.16 | 81 | 1009.2 |
| 20260506230322 | 69 | 242 | 0.0 | 2.6 | 0.00 | 0.16 | 0.16 | 80 | 1009.1 |
| 20260506225823 | 69 | 242 | 0.9 | 2.6 | 0.00 | 0.16 | 0.16 | 80 | 1009.2 |
| 20260506225350 | 69 | 238 | 0.9 | 2.6 | 0.00 | 0.16 | 0.16 | 80 | 1009.3 |
| 20260506224836 | 69 | 238 | 0.9 | 2.6 | 0.00 | 0.16 | 0.16 | 80 | 1009.2 |
| 20260506224322 | 69 | 236 | 0.9 | 2.6 | 0.00 | 0.16 | 0.16 | 80 | 1009.1 |
| 20260506223829 | 69 | 232 | 0.0 | 3.5 | 0.00 | 0.16 | 0.16 | 80 | 1009.1 |
| 20260506223335 | 69 | 224 | 1.7 | 3.5 | 0.00 | 0.16 | 0.16 | 79 | 1009.1 |
| 20260506222822 | 69 | 202 | 0.0 | 3.5 | 0.00 | 0.16 | 0.16 | 79 | 1009.1 |
| 20260506222348 | 69 | 253 | 0.9 | 5.2 | 0.00 | 0.16 | 0.16 | 80 | 1009.2 |
| 20260506221332 | 69 | 217 | 0.9 | 6.1 | 0.00 | 0.16 | 0.16 | 79 | 1009.2 |
| 20260506220836 | 69 | 237 | 3.5 | 6.1 | 0.00 | 0.16 | 0.16 | 78 | 1009.3 |
| 20260506220324 | 69 | 271 | 0.9 | 3.5 | 0.00 | 0.16 | 0.16 | 78 | 1009.3 |
| 20260506215855 | 69 | 212 | 0.0 | 3.5 | 0.00 | 0.16 | 0.16 | 78 | 1009.3 |
| 20260506215323 | 69 | 288 | 0.9 | 4.3 | 0.00 | 0.16 | 0.16 | 79 | 1009.3 |
| 20260506214828 | 69 | 224 | 0.0 | 2.6 | 0.00 | 0.16 | 0.16 | 79 | 1009.1 |
| 20260506214334 | 69 | 226 | 0.0 | 3.5 | 0.00 | 0.16 | 0.16 | 79 | 1009.1 |
| 20260506213840 | 69 | 207 | 0.0 | 1.7 | 0.00 | 0.16 | 0.16 | 80 | 1009.0 |
| 20260506213327 | 69 | 205 | 0.0 | 3.5 | 0.00 | 0.16 | 0.16 | 79 | 1008.9 |
| 20260506212833 | 69 | 213 | 1.7 | 3.5 | 0.00 | 0.16 | 0.16 | 79 | 1009.1 |
| 20260506212338 | 69 | 213 | 0.9 | 3.5 | 0.00 | 0.16 | 0.16 | 79 | 1008.9 |
| 20260506211843 | 69 | 213 | 0.9 | 3.5 | 0.00 | 0.16 | 0.16 | 79 | 1008.9 |
| 20260506211327 | 69 | 225 | 0.9 | 3.5 | 0.00 | 0.16 | 0.16 | 78 | 1008.8 |
| 20260506210851 | 69 | 225 | 0.9 | 8.7 | 0.00 | 0.16 | 0.16 | 78 | 1008.7 |
| 20260506210356 | 69 | 248 | 1.7 | 8.7 | 0.00 | 0.16 | 0.16 | 77 | 1008.8 |
| 20260506205850 | 69 | 220 | 2.6 | 6.1 | 0.00 | 0.16 | 0.16 | 77 | 1008.7 |
| 20260506205334 | 70 | 234 | 1.7 | 6.1 | 0.00 | 0.16 | 0.16 | 76 | 1008.5 |
| 20260506204823 | 70 | 284 | 2.6 | 7.0 | 0.00 | 0.16 | 0.16 | 76 | 1008.5 |
| 20260506204328 | 70 | 242 | 2.6 | 6.1 | 0.00 | 0.16 | 0.16 | 76 | 1008.6 |
| 20260506203833 | 70 | 258 | 0.9 | 5.2 | 0.00 | 0.16 | 0.16 | 77 | 1008.4 |
| 20260506203339 | 69 | 217 | 0.9 | 5.2 | 0.00 | 0.16 | 0.16 | 79 | 1008.5 |
| 20260506202825 | 69 | 232 | 1.7 | 5.2 | 0.00 | 0.16 | 0.16 | 79 | 1008.7 |
| 20260506202331 | 69 | 241 | 0.9 | 6.1 | 0.00 | 0.16 | 0.16 | 79 | 1008.7 |
| 20260506201857 | 69 | 290 | 1.7 | 7.8 | 0.00 | 0.16 | 0.16 | 79 | 1008.7 |
| 20260506201320 | 69 | 284 | 0.9 | 6.1 | 0.00 | 0.16 | 0.16 | 79 | 1008.6 |
| 20260506200827 | 69 | 244 | 0.9 | 6.1 | 0.00 | 0.16 | 0.16 | 80 | 1008.6 |
| 20260506200332 | 69 | 246 | 0.9 | 6.1 | 0.00 | 0.16 | 0.16 | 79 | 1008.6 |
| 20260506195828 | 69 | 241 | 2.6 | 7.0 | 0.00 | 0.16 | 0.16 | 78 | 1008.6 |
| 20260506195352 | 69 | 232 | 3.5 | 7.8 | 0.00 | 0.16 | 0.16 | 79 | 1008.6 |
| 20260506194836 | 69 | 329 | 0.9 | 4.3 | 0.00 | 0.16 | 0.16 | 80 | 1008.6 |
| 20260506194324 | 69 | 331 | 1.7 | 6.1 | 0.00 | 0.16 | 0.16 | 81 | 1008.7 |
| 20260506193832 | 68 | 223 | 2.6 | 6.1 | 0.00 | 0.16 | 0.16 | 79 | 1008.7 |
| 20260506193336 | 68 | 223 | 2.6 | 7.8 | 0.00 | 0.16 | 0.16 | 79 | 1008.7 |
| 20260506192821 | 68 | 282 | 3.5 | 7.8 | 0.00 | 0.16 | 0.16 | 79 | 1008.7 |
| 20260506192347 | 68 | 130 | 2.6 | 7.8 | 0.00 | 0.16 | 0.16 | 79 | 1008.7 |
| 20260506191832 | 68 | 267 | 2.6 | 7.8 | 0.00 | 0.16 | 0.16 | 81 | 1008.8 |
| 20260506191338 | 68 | 217 | 2.6 | 7.8 | 0.00 | 0.16 | 0.16 | 80 | 1008.9 |
| 20260506190824 | 68 | 199 | 4.3 | 7.0 | 0.00 | 0.16 | 0.16 | 80 | 1008.9 |
| 20260506190352 | 67 | 225 | 0.9 | 9.6 | 0.00 | 0.16 | 0.16 | 82 | 1008.7 |
| 20260506185827 | 67 | 244 | 5.2 | 9.6 | 0.00 | 0.16 | 0.16 | 81 | 1008.9 |
| 20260506185332 | 67 | 200 | 3.5 | 7.0 | 0.00 | 0.16 | 0.16 | 82 | 1008.9 |
| 20260506184821 | 67 | 185 | 1.7 | 7.8 | 0.00 | 0.16 | 0.16 | 83 | 1009.0 |
| 20260506184326 | 66 | 241 | 3.5 | 7.8 | 0.00 | 0.16 | 0.16 | 82 | 1009.1 |
| 20260506183831 | 66 | 261 | 2.6 | 7.8 | 0.00 | 0.16 | 0.16 | 83 | 1009.1 |
| 20260506183357 | 66 | 215 | 2.6 | 8.7 | 0.00 | 0.16 | 0.16 | 83 | 1009.1 |
| 20260506182843 | 66 | 205 | 1.7 | 8.7 | 0.00 | 0.16 | 0.16 | 84 | 1009.1 |
| 20260506182328 | 65 | 182 | 2.6 | 8.7 | 0.00 | 0.16 | 0.16 | 84 | 1009.1 |
| 20260506181835 | 65 | 227 | 2.6 | 11.3 | 0.00 | 0.16 | 0.16 | 83 | 1009.1 |
| 20260506181320 | 65 | 219 | 0.9 | 11.3 | 0.00 | 0.16 | 0.16 | 84 | 1009.2 |
| 20260506180826 | 65 | 243 | 3.5 | 9.6 | 0.00 | 0.16 | 0.16 | 83 | 1009.2 |
| 20260506180332 | 65 | 212 | 1.7 | 9.6 | 0.00 | 0.16 | 0.16 | 84 | 1009.2 |
| 20260506175828 | 65 | 256 | 3.5 | 9.6 | 0.00 | 0.16 | 0.16 | 84 | 1009.4 |
| 20260506175335 | 65 | 236 | 2.6 | 7.8 | 0.00 | 0.16 | 0.16 | 85 | 1009.4 |
| 20260506174823 | 65 | 180 | 2.6 | 10.4 | 0.00 | 0.16 | 0.16 | 85 | 1009.5 |
| 20260506174330 | 65 | 159 | 4.3 | 10.4 | 0.00 | 0.16 | 0.16 | 85 | 1009.4 |
| 20260506173857 | 64 | 194 | 2.6 | 8.7 | 0.00 | 0.16 | 0.16 | 86 | 1009.4 |
| 20260506173322 | 64 | 250 | 5.2 | 10.4 | 0.00 | 0.16 | 0.16 | 86 | 1009.4 |
| 20260506172829 | 64 | 244 | 3.5 | 10.4 | 0.00 | 0.16 | 0.16 | 86 | 1009.4 |
| 20260506172355 | 64 | 259 | 2.6 | 7.0 | 0.00 | 0.16 | 0.16 | 86 | 1009.4 |
| 20260506171839 | 63 | 171 | 3.5 | 7.0 | 0.00 | 0.16 | 0.16 | 87 | 1009.4 |
| 20260506171326 | 63 | 218 | 3.5 | 9.6 | 0.00 | 0.16 | 0.16 | 87 | 1009.3 |
| 20260506170832 | 63 | 212 | 4.3 | 9.6 | 0.00 | 0.16 | 0.16 | 87 | 1009.4 |
| 20260506170337 | 63 | 206 | 0.9 | 10.4 | 0.00 | 0.16 | 0.16 | 87 | 1009.4 |
| 20260506165833 | 63 | 232 | 5.2 | 9.6 | 0.00 | 0.16 | 0.16 | 87 | 1009.5 |
| 20260506165336 | 62 | 227 | 5.2 | 9.6 | 0.00 | 0.16 | 0.16 | 88 | 1009.2 |
| 20260506164901 | 62 | 232 | 1.7 | 8.7 | 0.00 | 0.16 | 0.16 | 88 | 1009.3 |
| 20260506164329 | 62 | 160 | 4.3 | 8.7 | 0.00 | 0.16 | 0.16 | 88 | 1009.4 |
| 20260506163855 | 62 | 221 | 2.6 | 9.6 | 0.00 | 0.16 | 0.16 | 88 | 1009.6 |
| 20260506163320 | 62 | 204 | 4.3 | 9.6 | 0.00 | 0.16 | 0.16 | 88 | 1009.6 |
| 20260506162827 | 62 | 198 | 4.3 | 8.7 | 0.00 | 0.16 | 0.16 | 89 | 1009.6 |
| 20260506162332 | 62 | 213 | 3.5 | 13.9 | 0.00 | 0.16 | 0.16 | 89 | 1009.6 |
| 20260506161837 | 62 | 174 | 4.3 | 13.0 | 0.00 | 0.16 | 0.16 | 89 | 1009.4 |
| 20260506161321 | 61 | 215 | 3.5 | 10.4 | 0.00 | 0.16 | 0.16 | 89 | 1009.7 |
| 20260506160825 | 61 | 217 | 4.3 | 9.6 | 0.01 | 0.16 | 0.16 | 89 | 1009.6 |
| 20260506160330 | 61 | 220 | 1.7 | 8.7 | 0.01 | 0.16 | 0.16 | 89 | 1009.8 |
| 20260506155826 | 61 | 218 | 3.5 | 8.7 | 0.01 | 0.16 | 0.16 | 89 | 1009.9 |
| 20260506155332 | 61 | 182 | 3.5 | 9.6 | 0.02 | 0.16 | 0.16 | 90 | 1009.9 |
| 20260506154820 | 61 | 217 | 4.3 | 10.4 | 0.03 | 0.16 | 0.16 | 90 | 1009.9 |
| 20260506154327 | 61 | 200 | 4.3 | 9.6 | 0.04 | 0.16 | 0.16 | 90 | 1009.7 |
| 20260506153834 | 61 | 190 | 2.6 | 10.4 | 0.04 | 0.16 | 0.16 | 90 | 1009.8 |
| 20260506153400 | 61 | 219 | 4.3 | 12.2 | 0.04 | 0.16 | 0.16 | 90 | 1009.7 |
| 20260506152824 | 61 | 175 | 3.5 | 12.2 | 0.04 | 0.16 | 0.16 | 90 | 1009.8 |
| 20260506152349 | 61 | 224 | 2.6 | 11.3 | 0.04 | 0.16 | 0.16 | 90 | 1009.8 |
| 20260506151854 | 61 | 191 | 4.3 | 12.2 | 0.04 | 0.16 | 0.16 | 90 | 1010.0 |
| 20260506151359 | 61 | 194 | 4.3 | 12.2 | 0.05 | 0.16 | 0.16 | 90 | 1009.9 |
| 20260506150824 | 60 | 214 | 2.6 | 7.0 | 0.04 | 0.15 | 0.15 | 90 | 1010.0 |
| 20260506150330 | 60 | 193 | 3.5 | 13.0 | 0.04 | 0.15 | 0.15 | 90 | 1010.2 |
| 20260506145825 | 61 | 177 | 6.1 | 13.0 | 0.05 | 0.15 | 0.15 | 90 | 1010.4 |
| 20260506145331 | 61 | 242 | 3.5 | 10.4 | 0.04 | 0.14 | 0.14 | 90 | 1010.5 |
| 20260506144839 | 61 | 206 | 2.6 | 8.7 | 0.04 | 0.13 | 0.13 | 90 | 1010.5 |
| 20260506144323 | 61 | 160 | 2.6 | 9.6 | 0.04 | 0.12 | 0.12 | 90 | 1010.6 |
| 20260506143835 | 61 | 153 | 2.6 | 10.4 | 0.04 | 0.12 | 0.12 | 90 | 1010.5 |
| 20260506143320 | 61 | 176 | 2.6 | 11.3 | 0.05 | 0.12 | 0.12 | 90 | 1010.4 |
| 20260506142825 | 61 | 151 | 3.5 | 11.3 | 0.05 | 0.12 | 0.12 | 90 | 1010.3 |
| 20260506142331 | 61 | 202 | 2.6 | 10.4 | 0.05 | 0.12 | 0.12 | 90 | 1010.3 |
| 20260506141836 | 61 | 205 | 3.5 | 10.4 | 0.06 | 0.12 | 0.12 | 90 | 1010.3 |
| 20260506141321 | 61 | 141 | 2.6 | 10.4 | 0.05 | 0.11 | 0.11 | 90 | 1010.2 |
| 20260506140828 | 61 | 194 | 1.7 | 10.4 | 0.06 | 0.11 | 0.11 | 90 | 1010.3 |
| 20260506140334 | 61 | 194 | 2.6 | 8.7 | 0.06 | 0.11 | 0.11 | 90 | 1010.4 |
| 20260506135829 | 61 | 190 | 0.9 | 7.0 | 0.06 | 0.10 | 0.10 | 89 | 1010.4 |
| 20260506135335 | 61 | 212 | 2.6 | 7.0 | 0.06 | 0.10 | 0.10 | 89 | 1010.3 |
| 20260506134825 | 61 | 173 | 0.0 | 8.7 | 0.06 | 0.09 | 0.09 | 89 | 1010.2 |
| 20260506134333 | 61 | 145 | 3.5 | 8.7 | 0.05 | 0.08 | 0.08 | 89 | 1010.6 |
| 20260506133839 | 61 | 209 | 0.9 | 7.0 | 0.06 | 0.08 | 0.08 | 89 | 1010.8 |
| 20260506133325 | 61 | 201 | 0.9 | 6.1 | 0.06 | 0.07 | 0.07 | 89 | 1011.1 |
| 20260506132832 | 61 | 227 | 2.6 | 5.2 | 0.06 | 0.07 | 0.07 | 89 | 1011.0 |
| 20260506132357 | 61 | 220 | 0.9 | 3.5 | 0.07 | 0.07 | 0.07 | 89 | 1011.0 |
| 20260506131823 | 61 | 219 | 0.9 | 3.5 | 0.06 | 0.06 | 0.06 | 89 | 1010.7 |
| 20260506131328 | 61 | 219 | 0.9 | 3.5 | 0.06 | 0.06 | 0.06 | 89 | 1010.8 |
| 20260506130833 | 61 | 219 | 0.0 | 5.2 | 0.05 | 0.05 | 0.05 | 88 | 1010.7 |
| 20260506130358 | 61 | 219 | 1.7 | 8.7 | 0.05 | 0.05 | 0.05 | 88 | 1010.8 |
| 20260506125833 | 61 | 208 | 0.9 | 3.5 | 0.04 | 0.04 | 0.04 | 87 | 1010.6 |
| 20260506125337 | 62 | 208 | 0.0 | 5.2 | 0.04 | 0.04 | 0.04 | 87 | 1010.6 |
| 20260506124827 | 62 | 209 | 1.7 | 5.2 | 0.03 | 0.03 | 0.03 | 86 | 1010.5 |
| 20260506124333 | 62 | 228 | 0.9 | 8.7 | 0.02 | 0.02 | 0.02 | 85 | 1010.5 |
| 20260506123840 | 62 | 252 | 0.9 | 8.7 | 0.02 | 0.02 | 0.02 | 84 | 1010.5 |
| 20260506123327 | 63 | 259 | 0.0 | 7.8 | 0.01 | 0.01 | 0.01 | 83 | 1010.6 |
| 20260506122832 | 63 | 161 | 1.7 | 7.8 | 0.01 | 0.01 | 0.01 | 82 | 1010.6 |
| 20260506122337 | 63 | 219 | 1.7 | 7.0 | 0.00 | 0.00 | 0.00 | 81 | 1010.8 |
| 20260506121820 | 64 | 209 | 2.6 | 5.2 | 0.00 | 0.00 | 0.00 | 80 | 1010.7 |
| 20260506121346 | 64 | 206 | 1.7 | 8.7 | 0.00 | 0.00 | 0.00 | 78 | 1010.8 |
| 20260506120832 | 64 | 215 | 1.7 | 8.7 | 0.00 | 0.00 | 0.00 | 77 | 1010.9 |
| 20260506120337 | 64 | 254 | 0.9 | 5.2 | 0.00 | 0.00 | 0.00 | 77 | 1011.0 |
| 20260506115832 | 65 | 182 | 1.7 | 5.2 | 0.00 | 0.00 | 0.00 | 76 | 1010.9 |
| 20260506115323 | 65 | 223 | 2.6 | 8.7 | 0.00 | 0.00 | 0.00 | 75 | 1010.9 |
| 20260506114848 | 65 | 212 | 3.5 | 9.6 | 0.00 | 0.00 | 0.00 | 74 | 1010.9 |
| 20260506114334 | 65 | 195 | 1.7 | 9.6 | 0.00 | 0.00 | 0.00 | 74 | 1010.9 |
| 20260506113838 | 65 | 262 | 2.6 | 8.7 | 0.00 | 0.00 | 0.00 | 74 | 1010.8 |
| 20260506113324 | 65 | 216 | 1.7 | 8.7 | 0.00 | 0.00 | 0.00 | 74 | 1010.7 |
| 20260506112830 | 65 | 237 | 1.7 | 8.7 | 0.00 | 0.00 | 0.00 | 74 | 1010.5 |
| 20260506112336 | 65 | 217 | 2.6 | 7.8 | 0.00 | 0.00 | 0.00 | 73 | 1010.6 |
| 20260506111822 | 65 | 235 | 0.9 | 7.0 | 0.00 | 0.00 | 0.00 | 73 | 1010.4 |
| 20260506111326 | 65 | 261 | 1.7 | 7.0 | 0.00 | 0.00 | 0.00 | 73 | 1010.5 |
| 20260506110833 | 65 | 203 | 2.6 | 7.0 | 0.00 | 0.00 | 0.00 | 73 | 1010.4 |
| 20260506110338 | 65 | 234 | 2.6 | 7.0 | 0.00 | 0.00 | 0.00 | 73 | 1010.3 |
| 20260506105832 | 65 | 214 | 4.3 | 6.1 | 0.00 | 0.00 | 0.00 | 73 | 1010.3 |
| 20260506105321 | 65 | 234 | 0.9 | 10.4 | 0.00 | 0.00 | 0.00 | 73 | 1010.1 |
| 20260506104828 | 66 | 218 | 4.3 | 10.4 | 0.00 | 0.00 | 0.00 | 72 | 1010.1 |
| 20260506104353 | 66 | 225 | 4.3 | 12.2 | 0.00 | 0.00 | 0.00 | 71 | 1010.1 |
| 20260506103839 | 66 | 192 | 3.5 | 8.7 | 0.00 | 0.00 | 0.00 | 71 | 1009.9 |
| 20260506103343 | 66 | 212 | 3.5 | 9.6 | 0.00 | 0.00 | 0.00 | 71 | 1009.9 |
| 20260506102827 | 66 | 217 | 5.2 | 9.6 | 0.00 | 0.00 | 0.00 | 70 | 1009.7 |
| 20260506102333 | 66 | 232 | 0.9 | 7.8 | 0.00 | 0.00 | 0.00 | 70 | 1009.8 |
| 20260506101839 | 66 | 194 | 3.5 | 7.8 | 0.00 | 0.00 | 0.00 | 70 | 1009.9 |